KZU79 DNMM-DIYO

Flight info

Callsign KZU79
Flight time 1h 53m
Altitude 24000
Route POLTO1Q POLTO L433 LM/N0462F400 UL433 ACC UB600 AD
Aircraft A333/H-SDE3GHIJ2J3J5M1RVWXY/LB2D1

Departure

Time 2026-04-27 17:18
Airport Murtala Muhammed International Airport (DNMM)

Arrival

Time 2026-04-27 19:11
Airport Yamoussoukro International Airport (DIYO)
Time Latitude Longitude Altitude Speed Heading
2026-04-27 17:16 6.58757 3.31514 82 ft 20 kts 358°
2026-04-27 17:16 6.58818 3.31471 82 ft 8 kts 270°
2026-04-27 17:17 6.58811 3.31408 82 ft 10 kts 261°
2026-04-27 17:17 6.58773 3.31345 84 ft 11 kts 225°
2026-04-27 17:17 6.58702 3.31316 82 ft 13 kts 182°
2026-04-27 17:18 6.57889 3.31325 73 ft 117 kts 179°
2026-04-27 17:18 6.56895 3.31337 85 ft 167 kts 179°
2026-04-27 17:18 6.55650 3.31327 514 ft 186 kts 181°
2026-04-27 17:18 6.54305 3.31313 1170 ft 200 kts 180°
2026-04-27 17:19 6.52894 3.31318 1999 ft 204 kts 180°
2026-04-27 17:19 6.51498 3.31280 2780 ft 205 kts 191°
2026-04-27 17:19 6.50287 3.30508 3391 ft 218 kts 232°
2026-04-27 17:19 6.49851 3.29019 3919 ft 234 kts 274°
2026-04-27 17:20 6.50282 3.27418 4629 ft 240 kts 288°
2026-04-27 17:20 6.50753 3.25793 5385 ft 245 kts 283°
2026-04-27 17:20 6.51050 3.24113 6142 ft 249 kts 277°
2026-04-27 17:20 6.51179 3.22353 6920 ft 254 kts 272°
2026-04-27 17:21 6.51200 3.20561 7676 ft 258 kts 270°
2026-04-27 17:21 6.51165 3.18725 8315 ft 270 kts 269°
2026-04-27 17:21 6.51096 3.16762 8656 ft 290 kts 268°
2026-04-27 17:21 6.51006 3.14705 9142 ft 303 kts 268°
2026-04-27 17:22 6.50907 3.12557 9772 ft 310 kts 268°
2026-04-27 17:22 6.50798 3.10347 10276 ft 324 kts 267°
2026-04-27 17:22 6.50686 3.08012 10560 ft 343 kts 267°
2026-04-27 17:22 6.50573 3.05578 10836 ft 361 kts 267°
2026-04-27 17:23 6.50455 3.03000 11218 ft 375 kts 267°
2026-04-27 17:23 6.50334 3.00357 11769 ft 382 kts 267°
2026-04-27 17:23 6.50212 2.97668 12380 ft 387 kts 267°
2026-04-27 17:23 6.50087 2.94947 13073 ft 390 kts 267°
2026-04-27 17:24 6.49961 2.92208 13747 ft 393 kts 267°
2026-04-27 17:24 6.49834 2.89455 14437 ft 395 kts 267°
2026-04-27 17:24 6.49706 2.86691 15110 ft 396 kts 268°
2026-04-27 17:24 6.49578 2.83909 15732 ft 400 kts 268°
2026-04-27 17:25 6.49449 2.81107 16371 ft 402 kts 268°
2026-04-27 17:25 6.49322 2.78321 16956 ft 405 kts 268°
2026-04-27 17:25 6.49079 2.75495 17569 ft 407 kts 261°
2026-04-27 17:25 6.48421 2.72716 18125 ft 410 kts 254°
2026-04-27 17:26 6.47541 2.69970 18643 ft 413 kts 250°
2026-04-27 17:26 6.46545 2.67246 19169 ft 416 kts 249°
2026-04-27 17:26 6.45502 2.64523 19683 ft 418 kts 249°
2026-04-27 17:26 6.44449 2.61784 20188 ft 421 kts 249°
2026-04-27 17:27 6.43405 2.59031 20667 ft 423 kts 249°
2026-04-27 17:27 6.42380 2.56286 21117 ft 426 kts 249°
2026-04-27 17:27 6.41347 2.53481 21581 ft 428 kts 249°
2026-04-27 17:27 6.40319 2.50663 22020 ft 430 kts 249°
2026-04-27 17:28 6.39290 2.47828 22428 ft 433 kts 249°
2026-04-27 17:28 6.38253 2.44970 22859 ft 435 kts 249°
2026-04-27 17:28 6.36348 2.39170 23672 ft 440 kts 257°
2026-04-27 17:29 6.35726 2.36145 24083 ft 442 kts 258°
2026-04-27 17:29 6.35181 2.33086 24459 ft 444 kts 260°
2026-04-27 17:29 6.34689 2.30052 24826 ft 447 kts 260°
2026-04-27 17:29 6.34211 2.26951 25206 ft 449 kts 261°
2026-04-27 17:30 6.33737 2.23838 25591 ft 450 kts 261°
2026-04-27 17:30 6.32777 2.17578 26345 ft 454 kts 261°
2026-04-27 17:30 6.32298 2.14480 26703 ft 456 kts 261°
2026-04-27 17:31 6.31809 2.11317 27067 ft 457 kts 261°
2026-04-27 17:31 6.31310 2.08144 27422 ft 459 kts 260°
2026-04-27 17:31 6.30804 2.04962 27778 ft 461 kts 260°
2026-04-27 17:31 6.30296 2.01772 28124 ft 462 kts 260°
2026-04-27 17:32 6.29793 1.98607 28451 ft 464 kts 261°
2026-04-27 17:32 6.28773 1.92172 29101 ft 467 kts 261°
2026-04-27 17:32 6.28259 1.88930 29413 ft 469 kts 261°
2026-04-27 17:33 6.27745 1.85682 29735 ft 471 kts 261°
2026-04-27 17:33 6.27230 1.82418 30055 ft 472 kts 261°
2026-04-27 17:33 6.26713 1.79151 30347 ft 474 kts 261°
2026-04-27 17:33 6.26200 1.75914 30614 ft 476 kts 261°
2026-04-27 17:34 6.25677 1.72620 30900 ft 478 kts 261°
2026-04-27 17:34 6.25153 1.69315 31176 ft 479 kts 261°
2026-04-27 17:34 6.24627 1.66000 31450 ft 481 kts 261°
2026-04-27 17:34 6.24099 1.62675 31760 ft 481 kts 261°
2026-04-27 17:35 6.23575 1.59372 31871 ft 472 kts 261°
2026-04-27 17:35 6.23067 1.56170 31874 ft 457 kts 261°
2026-04-27 17:35 6.22572 1.53048 31873 ft 448 kts 261°
2026-04-27 17:36 6.21593 1.46895 31880 ft 449 kts 261°
2026-04-27 17:36 6.20604 1.40682 31878 ft 450 kts 261°
2026-04-27 17:37 6.19615 1.34474 31887 ft 450 kts 261°
2026-04-27 17:37 6.18564 1.28311 31887 ft 449 kts 256°
2026-04-27 17:38 6.16475 1.22394 31889 ft 449 kts 248°
2026-04-27 17:38 6.14014 1.16611 31888 ft 450 kts 246°
2026-04-27 17:39 6.11484 1.10859 31887 ft 449 kts 246°
2026-04-27 17:39 6.08976 1.05137 31889 ft 450 kts 246°
2026-04-27 17:40 6.06483 0.99353 31889 ft 450 kts 248°
2026-04-27 17:40 6.04235 0.93515 31888 ft 450 kts 250°
2026-04-27 17:41 6.02068 0.87606 31887 ft 450 kts 250°
2026-04-27 17:41 5.99893 0.81704 31887 ft 450 kts 250°
2026-04-27 17:42 5.97693 0.75798 31888 ft 451 kts 250°
2026-04-27 17:42 5.95492 0.69926 31889 ft 451 kts 250°
2026-04-27 17:43 5.93279 0.64020 31889 ft 451 kts 250°
2026-04-27 17:43 5.91083 0.58161 31887 ft 451 kts 250°
2026-04-27 17:44 5.88868 0.52255 31887 ft 451 kts 250°
2026-04-27 17:44 5.86651 0.46343 31888 ft 451 kts 250°
2026-04-27 17:45 5.84451 0.40478 31888 ft 451 kts 250°
2026-04-27 17:45 5.82231 0.34561 31888 ft 451 kts 250°
2026-04-27 17:46 5.80022 0.28675 31889 ft 452 kts 250°
2026-04-27 17:46 5.77820 0.22808 31889 ft 451 kts 250°
2026-04-27 17:47 5.75601 0.16902 31888 ft 451 kts 250°
2026-04-27 17:47 5.73381 0.10995 31889 ft 452 kts 250°
2026-04-27 17:48 5.71538 0.06089 31887 ft 451 kts 250°
2026-04-27 17:48 5.69319 0.00190 31888 ft 451 kts 250°
2026-04-27 17:49 5.67100 -0.05705 31889 ft 452 kts 249°
2026-04-27 17:49 5.64880 -0.11603 31889 ft 451 kts 249°
2026-04-27 17:50 5.63291 -0.17635 31889 ft 451 kts 262°
2026-04-27 17:50 5.62253 -0.27033 31889 ft 451 kts 265°
2026-04-27 17:51 5.61693 -0.33324 31888 ft 451 kts 265°
2026-04-27 17:51 5.61126 -0.39564 31887 ft 451 kts 264°
2026-04-27 17:52 5.60538 -0.45845 31887 ft 451 kts 264°
2026-04-27 17:52 5.59946 -0.52082 31889 ft 451 kts 264°
2026-04-27 17:53 5.59347 -0.58355 31887 ft 451 kts 264°
2026-04-27 17:53 5.58749 -0.64635 31889 ft 451 kts 264°
2026-04-27 17:54 5.58155 -0.70886 31889 ft 451 kts 264°
2026-04-27 17:54 5.57557 -0.77157 31878 ft 451 kts 264°
2026-04-27 17:55 5.56959 -0.83424 31878 ft 451 kts 264°
2026-04-27 17:55 5.56360 -0.89696 31878 ft 451 kts 264°
2026-04-27 17:56 5.55763 -0.95927 31878 ft 451 kts 264°
2026-04-27 17:56 5.55163 -1.02211 31878 ft 451 kts 264°
2026-04-27 17:57 5.54559 -1.08490 31878 ft 451 kts 264°
2026-04-27 17:57 5.53956 -1.14776 31878 ft 451 kts 264°
2026-04-27 17:58 5.53364 -1.21015 31878 ft 451 kts 264°
2026-04-27 17:58 5.52772 -1.27295 31878 ft 451 kts 264°
2026-04-27 17:59 5.52180 -1.33576 31878 ft 451 kts 264°
2026-04-27 17:59 5.52074 -1.34700 31878 ft 451 kts 264°
2026-04-27 18:35 5.51669 -1.38984 31880 ft 451 kts 265°
2026-04-27 18:35 5.51079 -1.45212 31871 ft 445 kts 265°
2026-04-27 18:36 5.50156 -1.54941 31869 ft 443 kts 265°
2026-04-27 18:36 5.48985 -1.67278 31872 ft 443 kts 265°
2026-04-27 18:37 5.47853 -1.79572 31871 ft 443 kts 265°
2026-04-27 18:37 5.46751 -1.91807 31871 ft 443 kts 265°
2026-04-27 18:38 5.45632 -2.04120 31866 ft 443 kts 265°
2026-04-27 18:38 5.44512 -2.16440 31865 ft 443 kts 265°
2026-04-27 18:39 5.43386 -2.28785 31871 ft 443 kts 265°
2026-04-27 18:39 5.42254 -2.41141 31869 ft 443 kts 265°
2026-04-27 18:40 5.41132 -2.53391 31866 ft 443 kts 265°
2026-04-27 18:40 5.40000 -2.65752 31875 ft 444 kts 265°
2026-04-27 18:41 5.38864 -2.78101 31878 ft 444 kts 265°
2026-04-27 18:41 5.37727 -2.90397 31879 ft 444 kts 265°
2026-04-27 18:42 5.36967 -2.98611 31879 ft 444 kts 265°
2026-04-27 18:42 5.35634 -3.12989 31880 ft 444 kts 265°
2026-04-27 18:43 5.34486 -3.25340 31878 ft 444 kts 264°
2026-04-27 18:43 5.33334 -3.37724 31879 ft 445 kts 264°
2026-04-27 18:44 5.32188 -3.50000 31878 ft 444 kts 264°
2026-04-27 18:44 5.31034 -3.62348 31878 ft 444 kts 264°
2026-04-27 18:45 5.29876 -3.74695 31907 ft 444 kts 264°
2026-04-27 18:45 5.28732 -3.87041 31917 ft 444 kts 266°
2026-04-27 18:46 5.29965 -3.93038 31915 ft 444 kts 299°
2026-04-27 18:46 5.33910 -3.97707 31915 ft 447 kts 311°
2026-04-27 18:46 5.38805 -4.03026 31922 ft 449 kts 312°
2026-04-27 18:47 5.40538 -4.04879 31911 ft 448 kts 312°
2026-04-27 18:47 5.44803 -4.09455 31907 ft 448 kts 312°
2026-04-27 18:48 5.49064 -4.14036 31906 ft 449 kts 312°
2026-04-27 18:48 5.53646 -4.18965 31908 ft 449 kts 312°
2026-04-27 18:49 5.55771 -4.21254 31702 ft 456 kts 312°
2026-04-27 18:49 5.57950 -4.23598 30937 ft 462 kts 312°
2026-04-27 18:49 5.60165 -4.25982 29935 ft 470 kts 312°
2026-04-27 18:49 5.62405 -4.28393 29254 ft 470 kts 311°
2026-04-27 18:50 5.64629 -4.30786 28703 ft 467 kts 312°
2026-04-27 18:50 5.66816 -4.33138 28176 ft 463 kts 312°
2026-04-27 18:50 5.69002 -4.35491 27635 ft 459 kts 312°
2026-04-27 18:50 5.71168 -4.37823 27099 ft 455 kts 312°
2026-04-27 18:51 5.73322 -4.40142 26567 ft 451 kts 312°
2026-04-27 18:51 5.75452 -4.42439 26029 ft 447 kts 312°
2026-04-27 18:51 5.77566 -4.44714 25503 ft 443 kts 312°
2026-04-27 18:51 5.79660 -4.46967 24964 ft 439 kts 313°
2026-04-27 18:52 5.81734 -4.49203 24431 ft 435 kts 313°
2026-04-27 18:52 5.83789 -4.51420 23908 ft 431 kts 313°
2026-04-27 18:52 5.85827 -4.53613 23395 ft 427 kts 313°
2026-04-27 18:53 5.89820 -4.57922 22366 ft 419 kts 313°
2026-04-27 18:53 5.91803 -4.60056 21860 ft 415 kts 313°
2026-04-27 18:53 5.93767 -4.62172 21369 ft 412 kts 313°
2026-04-27 18:53 5.95712 -4.64269 20860 ft 409 kts 314°
2026-04-27 18:54 5.97647 -4.66352 20357 ft 406 kts 314°
2026-04-27 18:54 5.99546 -4.68394 19888 ft 403 kts 314°
2026-04-27 18:54 6.01449 -4.70454 19385 ft 401 kts 314°
2026-04-27 18:54 6.03346 -4.72506 18900 ft 398 kts 314°
2026-04-27 18:55 6.05225 -4.74538 18414 ft 396 kts 314°
2026-04-27 18:55 6.07099 -4.76563 17939 ft 393 kts 314°
2026-04-27 18:55 6.08961 -4.78573 17436 ft 391 kts 315°
2026-04-27 18:55 6.10811 -4.80571 16941 ft 389 kts 315°
2026-04-27 18:56 6.12629 -4.82531 16472 ft 386 kts 315°
2026-04-27 18:56 6.14459 -4.84503 15994 ft 384 kts 315°
2026-04-27 18:56 6.16278 -4.86467 15511 ft 382 kts 315°
2026-04-27 18:56 6.18085 -4.88420 15032 ft 380 kts 315°
2026-04-27 18:57 6.19883 -4.90364 14560 ft 378 kts 315°
2026-04-27 18:57 6.21671 -4.92296 14079 ft 377 kts 315°
2026-04-27 18:57 6.23457 -4.94225 13596 ft 375 kts 315°
2026-04-27 18:57 6.25209 -4.96120 13127 ft 374 kts 315°
2026-04-27 18:58 6.26980 -4.98033 12650 ft 372 kts 315°
2026-04-27 18:58 6.28739 -4.99934 12192 ft 371 kts 315°
2026-04-27 18:58 6.30497 -5.01834 11706 ft 369 kts 315°
2026-04-27 18:58 6.32240 -5.03717 11238 ft 368 kts 315°
2026-04-27 18:59 6.33962 -5.05581 11040 ft 357 kts 315°
2026-04-27 18:59 6.35617 -5.07374 10946 ft 342 kts 315°
2026-04-27 18:59 6.37184 -5.09070 10808 ft 325 kts 315°
2026-04-27 18:59 6.38687 -5.10697 10656 ft 311 kts 315°
2026-04-27 19:00 6.40145 -5.12271 10509 ft 304 kts 315°
2026-04-27 19:00 6.41590 -5.13830 10131 ft 305 kts 315°
2026-04-27 19:00 6.43038 -5.15394 9787 ft 305 kts 315°
2026-04-27 19:00 6.44487 -5.16960 9457 ft 304 kts 315°
2026-04-27 19:01 6.45910 -5.18499 9130 ft 303 kts 315°
2026-04-27 19:01 6.47344 -5.20050 8791 ft 301 kts 315°
2026-04-27 19:01 6.48760 -5.21582 8457 ft 298 kts 314°
2026-04-27 19:01 6.50166 -5.23104 8135 ft 296 kts 314°
2026-04-27 19:02 6.51567 -5.24618 7804 ft 295 kts 314°
2026-04-27 19:02 6.52957 -5.26124 7471 ft 293 kts 314°
2026-04-27 19:02 6.54343 -5.27625 7143 ft 291 kts 314°
2026-04-27 19:02 6.55695 -5.29082 6945 ft 283 kts 314°
2026-04-27 19:03 6.57020 -5.30512 6803 ft 275 kts 314°
2026-04-27 19:03 6.58295 -5.31898 6670 ft 262 kts 314°
2026-04-27 19:03 6.59499 -5.33210 6456 ft 250 kts 314°
2026-04-27 19:03 6.60275 -5.34060 6258 ft 248 kts 314°
2026-04-27 19:04 6.61842 -5.35746 5922 ft 245 kts 314°
2026-04-27 19:04 6.62995 -5.36993 5682 ft 242 kts 314°
2026-04-27 19:04 6.64131 -5.38222 5420 ft 241 kts 314°
2026-04-27 19:04 6.65273 -5.39457 5164 ft 240 kts 313°
2026-04-27 19:05 6.66411 -5.40686 4886 ft 240 kts 313°
2026-04-27 19:05 6.67545 -5.41909 4580 ft 239 kts 313°
2026-04-27 19:05 6.68695 -5.43140 4300 ft 241 kts 312°
2026-04-27 19:05 6.69828 -5.44379 4064 ft 239 kts 312°
2026-04-27 19:06 6.70955 -5.45598 3906 ft 234 kts 312°
2026-04-27 19:06 6.72020 -5.46748 3834 ft 222 kts 312°
2026-04-27 19:06 6.73102 -5.47809 3733 ft 213 kts 322°
2026-04-27 19:06 6.74377 -5.48492 3600 ft 205 kts 343°
2026-04-27 19:07 6.75744 -5.48613 3483 ft 192 kts 12°
2026-04-27 19:07 6.76970 -5.48188 3322 ft 182 kts 27°
2026-04-27 19:07 6.78043 -5.47547 3052 ft 177 kts 41°
2026-04-27 19:07 6.78984 -5.46738 3000 ft 178 kts 45°
2026-04-27 19:08 6.79889 -5.45934 2982 ft 169 kts 45°
2026-04-27 19:08 6.80737 -5.45178 2913 ft 159 kts 45°
2026-04-27 19:08 6.81558 -5.44454 2719 ft 155 kts 45°
2026-04-27 19:08 6.82353 -5.43742 2493 ft 151 kts 44°
2026-04-27 19:09 6.83131 -5.43044 2289 ft 148 kts 44°
2026-04-27 19:09 6.83894 -5.42360 2094 ft 145 kts 43°
2026-04-27 19:09 6.84636 -5.41695 1902 ft 144 kts 43°
2026-04-27 19:09 6.85385 -5.41023 1712 ft 144 kts 41°
2026-04-27 19:10 6.86128 -5.40359 1520 ft 143 kts 40°
2026-04-27 19:10 6.86870 -5.39692 1332 ft 143 kts 40°
2026-04-27 19:10 6.87606 -5.39022 1148 ft 143 kts 41°
2026-04-27 19:10 6.88093 -5.38578 1022 ft 143 kts 40°
2026-04-27 19:11 6.89096 -5.37700 756 ft 143 kts 39°
2026-04-27 19:11 6.89823 -5.37047 678 ft 131 kts 39°
2026-04-27 19:11 6.90383 -5.36559 681 ft 69 kts 41°
2026-04-27 19:11 6.90548 -5.36412 689 ft 14 kts 52°
2026-04-27 19:12 6.90542 -5.36342 690 ft 4 kts 126°
2026-04-27 19:12 6.90532 -5.36330 690 ft 3 kts 127°
2026-04-27 19:12 6.90520 -5.36311 692 ft 1 kts 122°
2026-04-27 19:12 6.90516 -5.36304 692 ft 2 kts 120°
2026-04-27 19:13 6.90512 -5.36296 692 ft 1 kts 119°
2026-04-27 19:13 6.90506 -5.36284 692 ft 2 kts 117°
2026-04-27 19:13 6.90501 -5.36274 690 ft 2 kts 117°
2026-04-27 19:13 6.90489 -5.36262 684 ft 3 kts 141°
2026-04-27 19:14 6.90464 -5.36250 685 ft 4 kts 169°
2026-04-27 19:14 6.90429 -5.36255 685 ft 6 kts 184°
2026-04-27 19:14 6.90378 -5.36268 684 ft 9 kts 212°
2026-04-27 19:14 6.90358 -5.36313 691 ft 4 kts 264°
2026-04-27 19:15 6.90357 -5.36337 690 ft 0 kts 268°
2026-04-27 19:35 6.90357 -5.36338 690 ft 0 kts 268°
2026-04-27 19:35 6.90359 -5.36346 684 ft 1 kts 281°
2026-04-27 19:35 6.90364 -5.36349 684 ft 1 kts 314°
2026-04-27 19:36 6.90380 -5.36354 685 ft 5 kts 347°
2026-04-27 19:36 6.90415 -5.36340 691 ft 7 kts 36°
2026-04-27 19:36 6.90466 -5.36314 692 ft 8 kts 12°
2026-04-27 19:36 6.90520 -5.36323 690 ft 9 kts 333°
2026-04-27 19:37 6.90555 -5.36382 684 ft 11 kts 268°
2026-04-27 19:37 6.90510 -5.36443 683 ft 11 kts 222°
2026-04-27 19:37 6.90445 -5.36501 689 ft 14 kts 221°
2026-04-27 19:37 6.90363 -5.36575 680 ft 18 kts 221°
2026-04-27 19:38 6.90260 -5.36666 681 ft 21 kts 220°
2026-04-27 19:38 6.90140 -5.36772 679 ft 25 kts 221°
2026-04-27 19:38 6.90002 -5.36895 678 ft 28 kts 221°
2026-04-27 19:38 6.89852 -5.37030 673 ft 30 kts 221°
2026-04-27 19:39 6.89695 -5.37168 672 ft 30 kts 221°
2026-04-27 19:39 6.89540 -5.37305 669 ft 29 kts 220°
2026-04-27 19:39 6.89388 -5.37431 666 ft 22 kts 213°
2026-04-27 19:39 6.89295 -5.37482 662 ft 8 kts 245°
2026-04-27 19:40 6.89302 -5.37496 664 ft 1 kts 327°
2026-04-27 19:40 6.89324 -5.37496 664 ft 5 kts
2026-04-27 19:40 6.89359 -5.37467 664 ft 11 kts 43°
2026-04-27 19:40 6.89518 -5.37322 669 ft 56 kts 41°
2026-04-27 19:41 6.89942 -5.36949 676 ft 105 kts 41°
2026-04-27 19:41 6.90604 -5.36362 684 ft 148 kts 41°
2026-04-27 19:41 6.91460 -5.35595 883 ft 171 kts 41°
2026-04-27 19:41 6.92325 -5.34751 1417 ft 175 kts 44°
2026-04-27 19:42 6.93149 -5.33851 2054 ft 174 kts 47°
2026-04-27 19:42 6.94106 -5.33175 2626 ft 167 kts 14°
2026-04-27 19:42 6.95215 -5.33363 2873 ft 173 kts 324°
2026-04-27 19:42 6.95807 -5.34474 2970 ft 196 kts 275°
2026-04-27 19:43 6.95502 -5.35830 3109 ft 214 kts 241°
2026-04-27 19:43 6.94694 -5.37170 3314 ft 234 kts 238°
2026-04-27 19:43 6.93855 -5.38629 3508 ft 249 kts 238°
2026-04-27 19:43 6.93008 -5.40211 3747 ft 264 kts 247°
2026-04-27 19:44 6.92600 -5.42025 4091 ft 273 kts 262°
2026-04-27 19:44 6.92486 -5.43954 4496 ft 279 kts 269°
2026-04-27 19:44 6.92531 -5.45927 4943 ft 283 kts 271°
2026-04-27 19:44 6.92642 -5.47919 5402 ft 286 kts 273°
2026-04-27 19:45 6.92765 -5.49901 5923 ft 287 kts 273°
2026-04-27 19:45 6.92873 -5.51923 6401 ft 290 kts 272°
2026-04-27 19:45 6.92955 -5.53962 6882 ft 293 kts 272°
2026-04-27 19:45 6.93017 -5.56023 7355 ft 296 kts 271°
2026-04-27 19:46 6.93063 -5.58106 7823 ft 299 kts 271°
2026-04-27 19:46 6.93102 -5.60210 8300 ft 302 kts 271°
2026-04-27 19:46 6.93175 -5.64430 9282 ft 306 kts 271°
2026-04-27 19:46 6.93248 -5.68710 10119 ft 316 kts 271°
2026-04-27 19:47 6.93347 -5.73282 10618 ft 338 kts 270°
2026-04-27 19:47 6.93463 -5.78159 11176 ft 358 kts 271°